This demonstration page uses our WeatherBlox Daily Observations layout. Learn more.

Left ArrowRight Arrow

34.74481, -87.66753

Hourly Observations for September 30, 2019

Temp ( °F °C ) Dew Point ( °F °C ) Humidity (%) Winds ( mph kmh ) Pressure ( in mb ) Visibility ( mi km ) Precip ( " mm )
12:53 am 00:53 Clear 75 23.9 70 21.1 84 84 Calm 30.11 1020 10 16 0.00 0.00
1:53 am 01:53 Clear 73 22.8 70 21.1 90 90 Calm 30.11 1020 7 11 0.00 0.00
2:53 am 02:53 Clear 73 22.8 69 20.6 87 87 Calm 30.09 1019 7 11 0.00 0.00
3:53 am 03:53 Clear with Mist and Fog 73 22.8 69 20.6 87 87 Calm 30.10 1019 6 10 0.00 0.00
4:53 am 04:53 Clear 71 21.7 68 20 90 90 Calm 30.11 1020 7 11 0.00 0.00
5:50 am 05:50 Clear with Mist and Fog 72 22 68 20 88 88 Calm 30.13 1020 2 3 0.00 0.00
5:53 am 05:53 Clear with Mist and Fog 71 21.7 68 20 90 90 Calm 30.13 1020 2 3 0.00 0.00
6:05 am 06:05 Clear with Mist and Fog 70 21.1 67 19.4 90 90 Calm 30.14 1021 4 6 0.00 0.00
6:53 am 06:53 Sunny with Mist and Fog 70 21.1 67 19.4 90 90 Calm 30.14 1021 3 4 0.00 0.00
7:05 am 07:05 Sunny with Mist and Fog 70 21.1 67 19.4 90 90 Calm 30.16 1021 3 5 0.00 0.00
7:53 am 07:53 Hazy 76 24.4 70 21.1 82 82 Calm 30.15 1021 6 10 0.00 0.00
8:53 am 08:53 Mostly Cloudy 83 28.3 70 21.1 65 65 Calm 30.16 1021 10 16 0.00 0.00
9:53 am 09:53 Sunny 88 31.1 69 20.6 54 54 Calm 30.16 1022 10 16 0.00 0.00
11:53 am 11:53 Partly Cloudy 96 35.6 66 18.9 37 37 NW 8 13 30.15 1021 10 16 0.00 0.00
12:53 pm 12:53 Mostly Cloudy 93 33.9 65 18.3 40 40 VRB 3 6 30.12 1020 10 16 0.00 0.00
1:53 pm 13:53 Mostly Sunny 96 35.6 66 18.9 37 37 ENE 6 9 30.09 1019 10 16 0.00 0.00
2:53 pm 14:53 Mostly Cloudy 96 35.6 66 18.9 37 37 N 7 11 30.08 1019 10 16 0.00 0.00
3:53 pm 15:53 Mostly Cloudy 98 36.7 65 18.3 34 34 VRB 3 6 30.06 1018 10 16 0.00 0.00
4:53 pm 16:53 Mostly Sunny 96 35.6 64 17.8 35 35 Calm 30.05 1018 10 16 0.00 0.00
5:53 pm 17:53 Sunny 94 34.4 65 18.3 38 38 ENE 5 7 30.04 1017 10 16 0.00 0.00
6:53 pm 18:53 Clear 87 30.6 66 18.9 50 50 Calm 30.04 1017 10 16 0.00 0.00
7:53 pm 19:53 Clear 81 27.2 68 20 65 65 Calm 30.05 1018 10 16 0.00 0.00
8:53 pm 20:53 Clear 78 25.6 68 20 71 71 Calm 30.05 1018 10 16 0.00 0.00
11:53 pm 23:53 Clear 73 22.8 67 19.4 81 81 Calm 30.06 1018 10 16 0.00 0.00

Powered by AerisWeather